Back to catalog

STARLINK-3125

AliveCommunicationsVLEO
NORAD 49451·PAYLOAD·🇺🇸 United States

Launched Nov 13, 2021 from Cape Canaveral Space Force Station

Loading…

Next Passes (next 24 hours)

TLE

FreshSource: CelesTrak SupGP

Epoch: Sep 14, 2026, 14:35 UTC

1 49451C 21104AV  26257.60812500 -.00020911  00000+0 -63448-3 0  2574
2 49451  53.1581  79.4392 0001422  88.7617 206.0727 15.33561722    18

Track STARLINK-3125 in real time with AllMySat

Download on the App Store